Total_Precipitation_Accumulation
3.27 3.48 4.22 4.01 3.67 3.43 3.25 3.13 2.95 2.92 3.09 3.24 3.18 3.17 3.18 3.25 3.40 3.56 3.74 3.84 4.10 4.43 4.69 4.74 4.43 4.51 4.45 4.35 3.97 3.39 2.96 2.90 2.85 2.70 2.56 2.56 2.45 2.58 2.99 3.20 2.94 2.34 2.31
2.75 3.10 3.74 3.66 3.46 3.24 3.07 3.01 2.90 2.88 3.08 3.22 3.25 3.18 3.24 3.23 3.30 3.35 3.53 3.92 4.29 4.52 4.69 4.37 4.18 4.32 4.23 4.16 3.69 3.22 2.86 2.78 2.75 2.82 2.68 2.32 2.43 2.78 3.18 3.28 3.24 2.45 2.31
2.35 2.71 2.87 3.25 3.19 3.04 2.91 2.99 3.32 3.38 3.35 3.24 3.20 3.10 3.12 3.13 3.22 3.37 3.65 3.96 4.26 4.28 4.29 4.11 4.00 3.96 3.84 3.74 3.39 3.04 2.82 2.68 2.73 2.96 3.11 2.21 1.97 2.71 3.04 3.12 2.87 2.26 2.04
2.14 2.39 2.51 2.98 2.92 2.68 2.81 3.04 3.35 3.53 3.49 3.37 3.24 3.07 3.02 3.18 3.35 3.50 3.54 3.71 3.94 3.87 3.64 3.70 3.84 3.81 3.68 3.42 3.11 2.94 2.84 2.79 2.99 3.31 3.31 2.36 1.80 2.29 2.77 2.75 2.44 2.08 1.88
2.08 2.31 2.70 2.87 2.70 2.57 2.71 2.97 3.30 3.47 3.38 3.33 3.23 3.10 3.16 3.14 3.19 3.27 3.26 3.48 3.65 3.66 3.51 3.40 3.58 3.73 3.70 3.44 3.10 2.95 2.83 2.90 3.27 3.25 2.79 2.65 2.54 2.51 2.58 2.55 2.35 2.12 1.96
1.72 2.07 2.52 2.78 2.68 2.63 2.92 3.10 3.23 3.26 3.16 3.12 3.09 3.14 3.11 3.01 3.06 3.06 3.04 3.16 3.43 3.46 3.21 3.15 3.46 3.77 3.80 3.47 3.07 3.08 3.11 3.23 3.16 2.57 2.37 2.37 2.48 2.59 2.53 2.63 2.58 2.35 2.17
1.63 1.94 2.37 2.76 2.62 2.64 2.81 3.03 3.27 3.35 3.23 3.04 2.97 2.89 2.91 2.95 3.00 2.93 2.77 2.86 3.09 3.09 2.91 2.96 3.41 3.65 3.64 3.37 3.15 3.34 3.31 3.31 2.84 2.40 2.24 2.45 2.30 2.22 2.39 2.66 2.86 2.64 2.30
1.42 1.70 2.04 2.54 2.54 2.49 2.56 2.75 2.96 3.06 3.02 2.87 2.68 2.62 2.70 2.76 2.77 2.71 2.61 2.76 2.75 2.67 2.74 2.94 3.41 3.23 3.21 3.34 3.37 3.58 3.47 2.94 2.29 2.26 2.12 2.20 1.83 1.94 2.37 2.62 2.74 2.58 2.28
1.32 1.46 1.82 2.21 2.39 2.44 2.64 2.70 2.62 2.59 2.50 2.40 2.28 2.37 2.53 2.61 2.51 2.44 2.46 2.58 2.52 2.55 2.75 3.07 3.31 2.97 3.01 3.33 3.41 3.50 3.36 2.83 2.23 2.23 2.04 2.27 2.05 2.23 2.62 2.68 2.58 2.54 2.28
1.58 1.61 1.85 2.03 2.16 2.26 2.41 2.54 2.49 2.44 2.24 2.10 2.08 2.18 2.28 2.37 2.35 2.26 2.22 2.45 2.45 2.55 2.63 2.94 3.03 2.80 3.07 3.32 3.40 3.37 3.21 2.62 2.04 2.09 2.19 2.04 2.17 2.55 2.92 2.93 2.82 2.74 2.53
1.91 1.92 1.92 1.89 1.90 2.11 2.20 2.24 2.49 2.50 2.33 2.21 2.28 2.33 2.37 2.39 2.19 2.13 2.19 2.62 2.64 2.74 2.82 3.03 3.09 3.25 3.36 3.23 3.44 3.37 2.93 2.44 2.38 2.33 2.37 2.10 2.33 2.86 3.15 3.11 3.05 3.10 2.91
2.04 2.09 2.13 2.01 1.82 2.00 2.04 2.32 2.53 2.21 2.29 2.37 2.49 2.33 2.35 2.50 2.48 2.15 2.55 2.89 3.08 3.34 3.43 3.59 3.73 3.60 3.28 3.29 3.80 3.67 2.78 2.63 2.48 2.45 2.72 2.53 2.67 3.22 3.54 3.36 3.23 3.30 3.21
2.07 1.88 2.09 2.34 2.28 2.28 2.38 2.26 2.30 2.36 2.52 2.49 2.27 2.22 2.41 2.15 2.00 2.21 2.57 2.88 3.18 3.51 3.79 4.04 4.11 3.73 3.69 3.97 4.07 3.61 2.86 2.57 2.55 2.31 2.72 2.73 2.89 3.48 3.97 3.80 3.62 3.58 3.54
2.29 1.97 1.97 2.22 2.53 2.52 2.38 2.29 2.20 2.18 2.32 2.30 2.39 2.21 2.36 2.37 2.37 2.60 3.09 3.22 3.47 3.59 4.13 4.23 4.58 4.31 3.99 3.70 3.73 3.55 3.11 2.99 2.79 2.79 3.08 2.64 2.78 3.40 4.13 4.23 4.07 3.89 3.69
2.58 2.30 2.16 2.14 2.47 2.60 2.63 2.46 2.14 2.24 2.22 2.39 2.56 2.42 2.45 2.58 2.92 3.23 3.35 3.73 3.68 3.73 4.12 4.56 4.54 4.81 4.75 4.55 4.21 3.85 3.75 3.47 3.15 3.22 3.23 2.97 2.88 3.18 3.90 4.48 4.45 4.25 3.96
2.93 2.80 2.49 2.35 2.49 2.62 2.70 2.69 2.61 2.51 2.68 2.70 2.79 2.78 2.86 3.09 3.47 3.84 3.92 4.07 3.89 3.91 4.38 4.71 4.80 5.40 5.22 4.96 4.41 4.08 3.87 3.69 3.37 3.21 3.39 3.49 3.03 2.91 3.44 4.35 4.80 4.71 4.54
3.10 3.20 3.06 2.92 2.97 3.09 3.39 3.33 3.03 3.07 3.07 3.16 3.31 3.35 3.29 3.43 3.95 4.27 4.24 4.14 4.16 4.18 4.61 4.91 5.04 5.20 4.89 4.67 4.56 4.36 4.11 3.84 3.39 3.35 3.39 3.62 3.39 3.13 3.36 3.85 4.46 4.71 4.89
3.16 3.57 3.64 3.37 3.60 3.85 4.14 4.16 3.80 3.75 3.68 3.65 3.57 3.61 3.54 3.67 3.98 4.57 4.33 4.16 4.59 4.44 4.75 5.40 5.44 5.36 5.31 5.02 4.81 4.36 4.08 3.91 3.35 3.27 3.29 3.50 3.87 3.31 3.37 3.79 4.12 4.34 4.96
3.20 3.77 4.04 4.16 4.39 4.50 4.65 4.70 4.50 4.34 4.16 3.81 3.78 3.78 3.64 3.71 3.90 4.39 4.28 4.39 4.41 4.80 5.03 4.67 5.43 5.57 5.39 5.06 4.33 4.10 3.72 3.55 3.46 3.13 3.26 3.30 3.70 3.54 3.56 3.64 3.91 4.13 4.88
3.46 3.96 4.56 4.86 5.05 4.87 4.87 4.96 4.71 4.31 4.13 3.90 3.87 3.82 3.62 3.73 3.79 4.35 4.22 4.20 4.21 4.74 4.97 4.95 5.48 5.45 5.07 4.93 3.85 3.71 3.56 3.15 3.09 3.16 2.96 3.18 3.45 3.13 3.41 3.74 4.16 3.69 4.04
3.95 4.28 4.64 5.16 5.51 5.44 5.52 5.46 5.30 4.94 4.68 4.23 3.77 3.43 3.38 3.39 3.64 4.24 3.92 4.39 4.29 4.48 4.59 4.58 5.00 5.13 4.74 4.72 4.62 4.13 3.32 2.84 2.78 2.78 2.83 3.04 3.05 3.19 3.89 4.49 4.61 4.42 4.16
3.76 4.29 4.72 4.82 4.81 4.71 5.00 5.41 5.59 5.53 4.96 4.26 3.85 3.75 3.38 3.29 3.48 3.77 4.17 4.09 4.15 4.37 4.38 4.41 4.78 4.73 4.27 4.43 4.75 4.79 3.95 3.57 2.97 2.29 2.64 2.77 2.91 3.35 3.68 3.93 4.32 4.68 4.80
3.20 3.76 3.97 3.94 3.89 3.80 3.98 4.40 4.69 5.00 4.78 4.43 4.08 3.81 3.37 3.23 3.27 3.48 3.82 3.90 4.00 3.85 4.09 4.32 4.31 4.34 4.30 4.25 4.33 4.84 4.46 3.99 3.29 2.60 2.41 2.52 2.95 3.33 3.41 3.70 3.72 4.00 4.31
2.43 2.69 2.83 3.07 3.24 3.31 3.36 3.58 3.86 4.17 4.23 4.22 4.14 3.78 3.37 3.06 3.05 3.23 3.40 3.46 3.54 3.49 3.82 3.51 3.67 4.06 4.34 4.22 4.11 3.95 4.01 4.18 4.02 3.25 2.68 2.53 2.82 3.02 3.03 3.02 3.34 3.78 3.89
2.19 2.40 2.54 2.87 3.08 3.20 3.19 3.27 3.51 3.85 3.89 3.71 3.58 3.69 3.45 3.16 2.89 2.84 3.06 3.19 3.20 3.14 3.28 3.34 3.74 3.71 3.90 3.96 3.98 3.94 4.02 4.05 3.84 3.64 3.21 3.01 2.91 2.59 2.59 2.81 3.12 3.47 3.66
1.99 2.17 2.41 2.69 2.73 2.84 2.89 2.90 2.97 3.20 3.38 3.26 3.16 3.18 3.06 2.94 2.85 2.76 2.82 3.01 2.94 2.93 3.09 3.26 3.40 3.42 3.55 3.66 3.65 3.71 4.04 3.94 3.84 3.89 3.41 3.18 3.03 2.66 2.60 2.69 2.86 3.20 3.42